This is the latest recevied weather packets stored in our database for station/object OK1FET-14. If no packets are shown the sender has not sent any weather packets the latest 1 day(s).
| Time | Temp. | Humidity | Pressure | Rain* | Wind** | Luminosity | Snow |
|---|---|---|---|---|---|---|---|
| 1778024680 | 10.56° C | 100% | 1007.6 hPa | - | 4.02 m/s, 196° | - | - |
| 1778024400 | 10.56° C | 100% | 1007.5 hPa | - | 3.58 m/s, 192° | - | - |
| 1778024400 | 10.56° C | 100% | 1007.5 hPa | - | 3.58 m/s, 192° | - | - |
| 1778024400 | 10.56° C | 100% | 1007.5 hPa | - | 3.58 m/s, 192° | - | - |
| 1778024400 | 10.56° C | 100% | 1007.5 hPa | - | 3.58 m/s, 192° | - | - |
| 1778024120 | 10.56° C | 100% | 1007.5 hPa | - | 2.68 m/s, 190° | - | - |
| 1778024120 | 10.56° C | 100% | 1007.5 hPa | - | 2.68 m/s, 190° | - | - |
| 1778024120 | 10.56° C | 100% | 1007.5 hPa | - | 2.68 m/s, 190° | - | - |
| 1778024120 | 10.56° C | 100% | 1007.5 hPa | - | 2.68 m/s, 190° | - | - |
| 1778023840 | 10.56° C | 100% | 1007.5 hPa | - | 2.68 m/s, 224° | - | - |
| 1778023840 | 10.56° C | 100% | 1007.5 hPa | - | 2.68 m/s, 224° | - | - |
| 1778023840 | 10.56° C | 100% | 1007.5 hPa | - | 2.68 m/s, 224° | - | - |
| 1778023840 | 10.56° C | 100% | 1007.5 hPa | - | 2.68 m/s, 224° | - | - |
| 1778023560 | 10.56° C | 100% | 1007.6 hPa | - | 2.24 m/s, 221° | - | - |
| 1778023560 | 10.56° C | 100% | 1007.6 hPa | - | 2.24 m/s, 221° | - | - |
| 1778023560 | 10.56° C | 100% | 1007.6 hPa | - | 2.24 m/s, 221° | - | - |
| 1778023560 | 10.56° C | 100% | 1007.6 hPa | - | 2.24 m/s, 221° | - | - |
| 1778023280 | 10.56° C | 100% | 1007.5 hPa | - | 2.24 m/s, 209° | - | - |
| 1778023280 | 10.56° C | 100% | 1007.5 hPa | - | 2.24 m/s, 209° | - | - |
| 1778023280 | 10.56° C | 100% | 1007.5 hPa | - | 2.24 m/s, 209° | - | - |
| 1778023000 | 10.56° C | 100% | 1007.4 hPa | - | 2.68 m/s, 225° | - | - |
| 1778023000 | 10.56° C | 100% | 1007.4 hPa | - | 2.68 m/s, 225° | - | - |
| 1778023000 | 10.56° C | 100% | 1007.4 hPa | - | 2.68 m/s, 225° | - | - |
| 1778023000 | 10.56° C | 100% | 1007.4 hPa | - | 2.68 m/s, 225° | - | - |
| 1778022720 | 10.56° C | 100% | 1007.5 hPa | - | 1.79 m/s, 210° | - | - |
* Rain since midnight (hover to see other rain measurements)
** Current wind speed in m/s (hover to see current wind gust speed)